Regional Weather Roundup
Issued by NWS Raleigh/Durham, NC

Home | Current Version | Previous Version | Text Only | Print | Product List | Glossary On
Versions: 1 2 3 4 5 6 7 8 9 10 11 12 13 14 15 16 17 18 19 20 21 22 23 24 25 26 27
000
ASUS42 KRAH 150610
RWRRAH
NORTH CAROLINA WEATHER ROUNDUP
NATIONAL WEATHER SERVICE RALEIGH NC
100 AM EST FRI DEC 15 2017

NOTE: "FAIR" INDICATES FEW OR NO CLOUDS BELOW 12,000 FEET WITH NO
SIGNIFICANT WEATHER AND/OR OBSTRUCTIONS TO VISIBILITY.

NCZ001-053-055-056-065-067-150700-
WESTERN NORTH CAROLINA

CITY           SKY/WX    TMP DP  RH WIND       PRES   REMARKS
ASHEVILLE      CLOUDY    32  26  78 W3        29.96S
JEFFERSON      CLEAR     25  23  91 CALM      29.92S
MORGANTON      CLEAR     32  29  90 N3        30.01F
HICKORY        CLEAR     33  26  75 N6        29.97F WCI  28
RUTHERFORDTON  NOT AVBL
MOUNT AIRY     CLEAR     35  23  62 E6        30.02S WCI  30
BOONE          CLEAR     24  22  92 CALM      29.93S
$$

NCZ021-022-025-041-071-084-088-150700-
CENTRAL NORTH CAROLINA

CITY           SKY/WX    TMP DP  RH WIND       PRES   REMARKS
CHARLOTTE      CLOUDY    42  27  55 E12       29.96F
GREENSBORO     CLEAR     35  22  58 NE7       29.99F WCI  29
WINSTON-SALEM  CLEAR     34  21  59 NE8       30.00F WCI  27
RALEIGH-DURHAM PTCLDY    35  27  72 NE7       30.03S WCI  29
FORT BRAGG     CLOUDY    38  27  64 N3        29.98F
FAYETTEVILLE   CLOUDY    36  31  82 N8        29.98F WCI  30
BURLINGTON     CLEAR     35  23  61 NE6       30.01F WCI  30
LAURINBURG     CLOUDY    35  31  85 CALM      29.99S
$$

NCZ011-015-027-028-043-044-047-080-103-150700-
NORTHEASTERN NORTH CAROLINA

CITY           SKY/WX    TMP DP  RH WIND       PRES   REMARKS
ROCKY MT-WILSO CLEAR     34  29  82 NE7       30.04R WCI  28
GREENVILLE     CLEAR     34  30  86 NE3       30.05R
WASHINGTON     CLOUDY    35  31  85 NE6       30.03S WCI  30
ELIZABETH CITY CLEAR     39  35  86 N9        30.04F WCI  33
MANTEO         CLEAR     45  37  75 NE12G17   30.03S
CAPE HATTERAS  CLEAR     46  41  82 NE6       30.00F
$$

NCZ078-087-090-091-093-098-101-150700-
SOUTHEASTERN NORTH CAROLINA

CITY           SKY/WX    TMP DP  RH WIND       PRES   REMARKS
LUMBERTON      CLOUDY    36  34  92 CALM      29.98S
GOLDSBORO      CLOUDY    38  32  79 NE6       30.00S WCI  33
KENANSVILLE    CLOUDY    36  32  87 CALM      30.00F
NEW BERN       CLOUDY    38  36  92 NE3       30.02S
CHERRY POINT   CLOUDY    41  32  70 NE7       30.01F
BEAUFORT       CLOUDY    42  40  92 NE7       29.99F
JACKSONVILLE   CLOUDY    38  35  89 CALM      30.00S
WILMINGTON     MOCLDY    39  37  92 CALM      29.99F
$$





USA.gov is the U.S. government's official web portal to all federal, state and local government web resources and services.